EW8324 Weather Reports


time (UTC)temp
F
wind
direction
speed
knots
gust
knots
rain 1hr
in
rain 24hr
in
rain mn
in
humidity
%
barometer
mb
20260502214348 76 0 0.0 3.5 0.03 0.15 0.60 44 1014.0
20260502213849 76 343 0.0 3.5 0.03 0.15 0.60 45 1014.0
20260502213346 76 80 0.0 10.4 0.03 0.15 0.60 45 1014.0
20260502213113 75 243 0.0 10.4 0.03 0.14 0.59 43 1014.0
20260502212956 75 243 0.0 10.4 0.03 0.14 0.59 43 1014.0
20260502212341 75 130 0.0 4.3 0.03 0.14 0.59 44 1014.0
20260502211843 76 329 0.9 4.3 0.03 0.14 0.59 44 1013.9
20260502211602 76 106 0.9 3.5 0.04 0.14 0.59 45 1014.1
20260502211450 76 106 0.9 3.5 0.04 0.14 0.59 45 1014.1
20260502211321 76 185 0.9 3.5 0.04 0.14 0.59 45 1014.2
20260502210959 76 185 0.9 3.5 0.04 0.14 0.59 45 1014.2
20260502210609 76 336 0.9 3.5 0.03 0.13 0.58 45 1014.2
20260502210454 76 336 0.9 3.5 0.03 0.13 0.58 45 1014.2
20260502205849 76 337 0.0 7.8 0.04 0.13 0.58 45 1014.3
20260502205346 76 333 0.9 7.8 0.04 0.13 0.58 45 1014.3
20260502204848 76 298 0.0 1.7 0.03 0.12 0.57 45 1014.2
20260502204346 76 80 0.0 4.3 0.03 0.12 0.57 45 1014.3
20260502203847 76 35 0.9 4.3 0.04 0.12 0.57 46 1014.3
20260502203608 76 193 0.9 9.6 0.04 0.12 0.57 48 1014.5
20260502203454 76 193 0.9 9.6 0.04 0.12 0.57 48 1014.5
20260502202846 76 42 1.7 9.6 0.03 0.11 0.56 45 1014.3
20260502202345 76 344 0.0 3.5 0.04 0.11 0.56 43 1014.5
20260502201848 76 104 0.0 6.1 0.04 0.11 0.56 43 1014.4
20260502201345 76 331 2.6 6.1 0.04 0.10 0.55 43 1014.5
20260502200847 77 185 0.0 0.0 0.04 0.10 0.55 43 1014.5
20260502200345 77 73 0.0 0.9 0.04 0.10 0.55 43 1014.7
20260502195849 77 0 0.0 2.6 0.04 0.09 0.54 44 1014.6
20260502195344 76 102 0.0 5.2 0.04 0.09 0.54 43 1014.6
20260502194840 76 338 0.0 5.2 0.04 0.09 0.54 44 1014.8
20260502194339 77 173 0.9 3.5 0.05 0.09 0.54 43 1014.9
20260502194103 77 96 0.9 2.6 0.04 0.08 0.53 44 1015.0
20260502193955 77 96 0.9 2.6 0.04 0.08 0.53 44 1015.0
20260502193345 77 34 0.0 0.0 0.04 0.08 0.53 46 1015.1
20260502192846 77 168 0.0 2.6 0.05 0.08 0.53 46 1015.0
20260502192344 77 299 0.0 2.6 0.04 0.07 0.52 47 1015.1
20260502191845 77 145 0.0 2.6 0.04 0.07 0.52 48 1015.2
20260502191341 77 65 0.9 2.6 0.04 0.06 0.51 46 1015.2
20260502190841 77 4 0.0 0.0 0.04 0.06 0.51 49 1015.3
20260502190558 77 200 0.0 0.0 0.04 0.06 0.51 45 1015.3
20260502190445 77 200 0.0 0.0 0.04 0.06 0.51 45 1015.3
20260502185843 0 0.0 0.9 0.04 0.05 0.50 1015.4
20260502185343 78 0 0.0 0.9 0.04 0.05 0.50 49 1015.4
20260502184844 77 316 0.0 0.0 0.05 0.05 0.50 49 1015.4
20260502184342 77 261 0.0 2.6 0.04 0.04 0.49 47 1015.6
20260502183845 77 25 0.0 2.6 0.04 0.04 0.49 47 1015.6
20260502183549 76 103 0.0 0.0 0.03 0.03 0.48 49 1015.7
20260502183441 77 300 0.0 0.0 0.04 0.04 0.49 47 1015.6
20260502182952 76 103 0.0 0.0 0.03 0.03 0.48 49 1015.7
20260502182342 76 173 0.0 0.0 0.03 0.03 0.48 48 1015.7
20260502181844 76 154 0.0 0.0 0.03 0.03 0.48 50 1015.7
20260502181559 76 51 0.0 0.0 0.02 0.02 0.47 48 1016.0
20260502181449 76 51 0.0 0.0 0.02 0.02 0.47 48 1016.0
20260502180843 75 252 0.0 1.7 0.02 0.02 0.47 49 1015.8
20260502180342 76 200 0.0 1.7 0.02 0.02 0.47 52 1016.0